[[{"header":{"parameterUnit":"m.s-1","parameterCategory":1,"la1":30.2991,"la2":30.254,"lo1":-89.0895,"lo2":-89.0444,"dx":0.0017,"dy":0.0017,"nx":28,"ny":28,"refTime":"2022-11-13T15:00:00:Z","depth":0,"parameterNumber":2,"parameterNumberName":"U-component_of_WINDS"},"data":[0,0,0,0,0,0,0,0,0,0,0,0,0,0,0,0,0,0,0,0,0,0,0,0,0,0,0,0,0,0,0,0,0,0,0,0,0,0,0,0,0,0,0,0,0,0,0,0,0,0,0,0,0,0,0,0,0,0,-4.0262,-4.0263,0,-4.0315,-4.0316,-4.0316,-4.0176,-4.0172,-4.0168,-4.0164,-4.0218,-4.0224,-4.0229,0,0,0,0,0,0,0,0,0,0,0,0,0,-4.0041,-4.0046,-4.0262,-4.0263,-4.0264,-4.0315,-4.0316,-4.0316,-4.0177,-4.0172,-4.0167,-4.0162,-4.0217,-4.0223,-4.023,0,0,0,0,0,0,0,0,0,0,0,0,0,-4.012,-4.0047,-4.0262,-4.02,-4.0195,-4.0315,-4.0316,-4.0317,-4.0178,-4.0172,-4.0165,-4.0159,-4.0214,-4.0222,-4.0231,-4.0413,0,0,-4.0256,-4.0259,0,0,0,0,0,0,0,0,-4.0115,-4.0128,-4.0209,-4.0205,-4.0199,-4.0232,-4.0257,-4.0349,-4.018,-4.0185,-4.0164,-4.0156,-4.0228,-4.0235,-4.0259,-4.0415,-4.0417,-4.0257,-4.0262,-4.0265,-4.0268,0,0,0,0,0,0,0,-4.011,-4.0125,-4.0283,-4.021,-4.0204,-4.017,-4.0174,-4.0274,-4.0243,-4.0184,-4.0174,-4.0182,-4.0225,-4.0252,-4.026,-4.0418,-4.0256,-4.0264,-4.0269,-4.0272,-4.0724,-4.0731,0,0,0,0,0,0,-4.0113,-4.0121,-4.0281,-4.0285,-4.014,-4.0179,-4.0184,-4.0228,-4.0241,-4.0237,-4.0188,-4.0175,-4.0241,-4.025,-4.0261,-4.0474,-4.0265,-4.0273,-4.0278,-4.0717,-4.0726,-4.0733,0,0,0,0,0,0,-4.0108,-4.0128,-4.0279,-4.02,-4.0217,-4.019,-4.0241,-4.0233,-4.026,-4.0244,-4.0238,-4.0221,-4.0236,-4.0249,-4.0375,-4.0474,-4.0277,-4.0284,-4.0709,-4.072,-4.073,-4.0902,0,0,0,0,0,0,-4.0103,-4.0128,-4.0197,-4.0203,-4.0222,-4.0394,-4.0248,-4.0239,-4.0274,-4.0259,-4.0274,-4.027,-4.0232,-4.0364,-4.0384,-4.0481,-4.0291,-4.07,-4.0714,-4.0726,-4.0887,-4.0917,-4.0942,0,0,0,0,0,-4.0095,-4.0243,-4.0201,-4.0221,-4.0307,-4.0399,-4.041,-4.0363,-4.0283,-4.0352,-4.0341,-4.0269,-4.046,-4.0378,-4.0399,-4.0501,-4.0694,-4.071,-4.0725,-4.0875,-4.0911,-4.0941,0,0,0,0,0,0,-4.025,-4.0243,-4.0196,-4.035,-4.0377,-4.0376,-4.0461,-4.0403,-4.0453,-4.0436,-4.0376,-4.0381,-4.0518,-4.0522,-4.0431,-4.0677,-4.0563,-4.0584,-4.0669,-4.0704,-4.0731,-4.0726,-4.0297,0,0,0,0,0,-4.0302,-4.0377,-4.0367,-4.0504,-4.052,-4.0489,-4.0527,-4.0489,-4.0513,-4.0524,-4.0522,-4.055,-4.0615,-4.0659,-4.0719,-4.0887,-4.0888,-4.0967,-4.0995,-4.1018,-4.1036,-4.1124,-4.1159,-4.0786,-4.0785,-4.0785,0,0,-4.041,-4.0416,-4.0467,-4.0536,-4.0551,-4.063,-4.0499,-4.0589,-4.0646,-4.0537,-4.0656,-4.0656,-4.0682,-4.083,-4.0895,-4.0837,-4.1139,-4.1038,-4.1056,-4.1062,-4.1144,-4.1179,-4.1211,-4.0796,-4.0794,-4.0793,0,0,-4.0647,-4.066,-4.0775,-4.0793,-4.0818,-4.0796,-4.0824,-4.0832,-4.0828,-4.0946,-4.0866,-4.0934,-4.1049,-4.107,-4.1096,-4.1341,-4.1276,-4.1362,-4.1506,-4.1592,-4.1622,-4.1648,-4.1734,-4.1766,-4.1381,-4.1381,-4.1382,0,-4.0779,-4.0895,-4.0841,-4.0936,-4.0968,-4.0873,-4.0989,-4.1009,-4.1053,-4.1077,-4.1012,-4.1153,-4.1164,-4.1315,-4.1375,-4.1399,-4.1429,-4.136,-4.1622,-4.1647,-4.167,-4.1752,-4.1785,-4.1391,-4.139,-4.1389,-4.1388,0,-4.1054,-4.1136,-4.1226,-4.127,-4.1312,-4.1418,-4.138,-4.1429,-4.1387,-4.1372,-4.1493,-4.1503,-4.1562,-4.1595,-4.1555,-4.1741,-4.1704,-4.1632,-4.1516,-4.1717,-4.1793,-4.1824,-4.1406,-4.1402,-4.1399,-4.1397,0,0,-4.1391,-4.1403,-4.1437,-4.1455,-4.1476,-4.1538,-4.1639,-4.1696,-4.1739,-4.1773,-4.1855,-4.1954,-4.1887,-4.1916,-4.1878,-4.1954,-4.2146,-4.1872,-4.1872,-4.1922,-4.235,-4.2403,-4.2441,-4.2104,-4.211,-4.2114,-4.2347,0,-4.1624,-4.1796,-4.175,-4.1922,-4.1996,-4.1906,-4.1993,-4.2015,-4.2004,-4.2065,-4.2052,-4.2123,-4.203,-4.2047,-4.2118,-4.2108,-4.2231,-4.2091,-4.2179,-4.2183,-4.2175,-4.248,-4.2537,-4.2757,-4.2377,-4.2382,-4.2385,0,-4.1919,-4.1963,-4.2142,-4.2149,-4.2178,-4.2258,-4.2306,-4.2366,-4.2389,-4.2375,-4.2409,-4.2355,-4.2453,-4.2338,-4.2472,-4.2378,-4.2411,-4.2412,-4.2419,-4.2425,-4.2296,-4.2494,-4.2826,-4.2859,-4.2432,-4.2428,-4.2425,0,-4.2145,-4.2249,-4.2369,-4.2388,-4.24,-4.2457,-4.2465,-4.2481,-4.2519,-4.2561,-4.2585,-4.2639,-4.2669,-4.2712,-4.2674,-4.2593,-4.2814,-4.2695,-4.2805,-4.2806,-4.2855,-4.2852,-4.3197,-4.2879,-4.2878,-4.2878,-4.2877,0,-4.241,-4.2523,-4.2471,-4.2545,-4.2668,-4.2614,-4.2738,-4.2735,-4.2751,-4.2822,-4.2748,-4.2817,-4.2763,-4.2827,-4.2798,-4.2913,-4.2927,-4.2919,-4.2909,-4.2925,-4.2926,-4.2945,-4.2929,-4.2886,-4.2885,-4.2883,-4.2881,0,-4.2683,-4.2653,-4.2778,-4.2778,-4.2781,-4.2872,-4.2872,-4.294,-4.2923,-4.3015,-4.3033,-4.3007,-4.3078,-4.3045,-4.312,-4.31,-4.3248,-4.3219,-4.3241,-4.3233,-4.3344,-4.3334,-4.3712,-4.3759,-4.3412,-4.3416,-4.3418,0,-4.2854,-4.2938,-4.2948,-4.299,-4.3002,-4.3072,-4.3109,-4.306,-4.3102,-4.3134,-4.3198,-4.3263,-4.3312,-4.343,-4.3418,-4.3475,-4.3446,-4.3574,-4.3454,-4.3466,-4.3446,-4.3442,-4.3449,-4.3599,-4.3603,-4.3606,-4.3609,0,-4.3159,-4.314,-4.3196,-4.3248,-4.3295,-4.3333,-4.3365,-4.3404,-4.3356,-4.3407,-4.3478,-4.3517,-4.3593,-4.3658,-4.3707,-4.3714,-4.3654,-4.3647,-4.3675,-4.3691,-4.37,-4.3695,-4.3306,-4.3638,-4.3635,-4.3633,-4.3631,-4.363,-4.3385,-4.3456,-4.3473,-4.3538,-4.3557,-4.3589,-4.3652,-4.3643,-4.3702,-4.3759,-4.3727,-4.3811,-4.3831,-4.3891,-4.3906,-4.3971,-4.392,-4.3961,-4.3971,-4.3982,-4.3996,-4.369,-4.398,-4.3979,-4.3978,-4.3977,-4.3977,0,-4.3686,-4.3693,-4.3753,-4.38,-4.3851,-4.3789,-4.3821,-4.3868,-4.3943,-4.3967,-4.4016,-4.4098,-4.4161,-4.4154,-4.4211,-4.4264,-4.4238,-4.4281,-4.4276,-4.4278,-4.4039,-4.4009,-4.4301,-4.4301,-4.4301,-4.4301,-4.4301,-4.43,-4.3848,-4.3964,-4.3946,-4.407,-4.4075,-4.4157,-4.418,-4.4209,-4.4227,-4.4322,-4.4373,-4.4368,-4.4379,-4.4436,-4.4491,-4.4487,-4.4511,-4.4564,-4.455,-4.4327,-4.4295,-4.4264,-4.4235,-4.457,-4.4571,-4.4783,-4.4785,-4.4787]},{"header":{"parameterUnit":"m.s-1","parameterCategory":1,"la1":30.2991,"la2":30.254,"lo1":-89.0895,"lo2":-89.0444,"dx":0.0017,"dy":0.0017,"nx":28,"ny":28,"refTime":"2022-11-13T15:00:00:Z","depth":0,"parameterNumber":3,"parameterNumberName":"V-component_of_WINDS"},"data":[0,0,0,0,0,0,0,0,0,0,0,0,0,0,0,0,0,0,0,0,0,0,0,0,0,0,0,0,0,0,0,0,0,0,0,0,0,0,0,0,0,0,0,0,0,0,0,0,0,0,0,0,0,0,0,0,0,0,-2.2681,-2.2681,0,-2.2709,-2.271,-2.271,-2.2736,-2.2736,-2.2736,-2.2737,-2.2763,-2.2764,-2.2764,0,0,0,0,0,0,0,0,0,0,0,0,0,-2.2643,-2.2643,-2.2681,-2.2681,-2.2681,-2.2709,-2.271,-2.271,-2.2736,-2.2736,-2.2736,-2.2737,-2.2763,-2.2764,-2.2764,0,0,0,0,0,0,0,0,0,0,0,0,0,-2.2664,-2.2644,-2.268,-2.2697,-2.2699,-2.2709,-2.271,-2.271,-2.2736,-2.2736,-2.2737,-2.2737,-2.2763,-2.2764,-2.2764,-2.2759,0,0,-2.2766,-2.2767,0,0,0,0,0,0,0,0,-2.2663,-2.2665,-2.2695,-2.2696,-2.2698,-2.272,-2.2706,-2.2727,-2.2735,-2.2722,-2.2737,-2.2737,-2.2748,-2.275,-2.2754,-2.276,-2.2762,-2.2766,-2.2767,-2.2767,-2.2767,0,0,0,0,0,0,0,-2.2661,-2.2664,-2.2692,-2.2695,-2.2697,-2.2702,-2.2706,-2.271,-2.2732,-2.2723,-2.2725,-2.2728,-2.2749,-2.2754,-2.2755,-2.2762,-2.2766,-2.2767,-2.2767,-2.2768,-2.2762,-2.2761,0,0,0,0,0,0,-2.2658,-2.2663,-2.2691,-2.2693,-2.2681,-2.2702,-2.2706,-2.2712,-2.2732,-2.2736,-2.2728,-2.2729,-2.2752,-2.2755,-2.2756,-2.2749,-2.2767,-2.2768,-2.2768,-2.2762,-2.2762,-2.2761,0,0,0,0,0,0,-2.2657,-2.266,-2.269,-2.2678,-2.2683,-2.2703,-2.2709,-2.2713,-2.2717,-2.2736,-2.2739,-2.2729,-2.2753,-2.2755,-2.2758,-2.2751,-2.2768,-2.2769,-2.2763,-2.2762,-2.2761,-2.2737,0,0,0,0,0,0,-2.2656,-2.266,-2.2659,-2.2678,-2.2683,-2.2692,-2.2709,-2.2713,-2.2718,-2.2721,-2.2737,-2.2741,-2.2753,-2.2757,-2.2758,-2.2752,-2.2769,-2.2764,-2.2762,-2.2762,-2.2738,-2.2735,-2.2733,0,0,0,0,0,-2.2654,-2.2651,-2.2659,-2.2662,-2.2683,-2.2692,-2.2694,-2.271,-2.2718,-2.2716,-2.2728,-2.274,-2.2751,-2.2757,-2.2759,-2.2753,-2.2764,-2.2763,-2.2762,-2.274,-2.2736,-2.2733,0,0,0,0,0,0,-2.2631,-2.2654,-2.2663,-2.2666,-2.2677,-2.2696,-2.2695,-2.2706,-2.2714,-2.2716,-2.2734,-2.2737,-2.2737,-2.2745,-2.2751,-2.2747,-2.2759,-2.2758,-2.2742,-2.2738,-2.2736,-2.2733,-2.277,0,0,0,0,0,-2.2626,-2.2632,-2.2652,-2.2653,-2.2658,-2.2675,-2.268,-2.2691,-2.2702,-2.2706,-2.2718,-2.2728,-2.2733,-2.2736,-2.2743,-2.274,-2.2742,-2.2736,-2.2733,-2.2731,-2.273,-2.2726,-2.2723,-2.2757,-2.2757,-2.2757,0,0,-2.2616,-2.263,-2.2632,-2.2648,-2.2658,-2.2662,-2.2679,-2.2684,-2.2686,-2.2707,-2.2709,-2.2718,-2.273,-2.2729,-2.2729,-2.2735,-2.2721,-2.2729,-2.2727,-2.2727,-2.2724,-2.2721,-2.2718,-2.2756,-2.2756,-2.2756,0,0,-2.26,-2.2612,-2.2613,-2.2621,-2.2635,-2.2647,-2.2647,-2.2664,-2.267,-2.2673,-2.2688,-2.2691,-2.2701,-2.2707,-2.2712,-2.2695,-2.2706,-2.2697,-2.2682,-2.2678,-2.2675,-2.2673,-2.2665,-2.2662,-2.2696,-2.2696,-2.2696,0,-2.2586,-2.2594,-2.2612,-2.2615,-2.262,-2.2639,-2.2638,-2.2646,-2.266,-2.2663,-2.267,-2.2681,-2.269,-2.269,-2.2685,-2.2689,-2.2688,-2.2695,-2.2674,-2.2672,-2.267,-2.2663,-2.266,-2.2694,-2.2695,-2.2695,-2.2695,0,-2.2575,-2.258,-2.2579,-2.2593,-2.2598,-2.2599,-2.2615,-2.2618,-2.2627,-2.2637,-2.2638,-2.265,-2.2657,-2.2658,-2.2668,-2.2658,-2.2661,-2.2671,-2.2684,-2.2665,-2.2658,-2.2656,-2.2692,-2.2693,-2.2693,-2.2694,0,0,-2.2547,-2.2568,-2.2567,-2.2572,-2.2588,-2.2591,-2.2592,-2.26,-2.2601,-2.261,-2.2609,-2.2616,-2.2624,-2.2629,-2.264,-2.2637,-2.2619,-2.2647,-2.2647,-2.2639,-2.2606,-2.2597,-2.2594,-2.2627,-2.2626,-2.2626,-2.2604,0,-2.2532,-2.2536,-2.255,-2.2548,-2.2552,-2.2568,-2.2568,-2.2577,-2.2585,-2.2588,-2.2597,-2.2601,-2.2613,-2.2615,-2.2613,-2.2622,-2.2613,-2.2624,-2.2624,-2.2624,-2.262,-2.2591,-2.2582,-2.2562,-2.2602,-2.2602,-2.2601,0,-2.2516,-2.2523,-2.2522,-2.2535,-2.2537,-2.2537,-2.2543,-2.2547,-2.2555,-2.2561,-2.2566,-2.2577,-2.2576,-2.2588,-2.2586,-2.2594,-2.2594,-2.2599,-2.2598,-2.2598,-2.2611,-2.2588,-2.2556,-2.2552,-2.2598,-2.2598,-2.2598,0,-2.2493,-2.2503,-2.2503,-2.2507,-2.2522,-2.2521,-2.2527,-2.2536,-2.2539,-2.2544,-2.2545,-2.2551,-2.2553,-2.2556,-2.2567,-2.2575,-2.2562,-2.2576,-2.2566,-2.2565,-2.2562,-2.2562,-2.2527,-2.2565,-2.2565,-2.2565,-2.2565,0,-2.2475,-2.2473,-2.2492,-2.2492,-2.2489,-2.2504,-2.2501,-2.2508,-2.2515,-2.2515,-2.253,-2.2529,-2.2545,-2.2545,-2.2554,-2.2549,-2.2551,-2.2554,-2.2556,-2.2552,-2.2551,-2.2552,-2.2553,-2.2564,-2.2564,-2.2564,-2.2564,0,-2.245,-2.2462,-2.2463,-2.2476,-2.2479,-2.2476,-2.2487,-2.2486,-2.2495,-2.2494,-2.2495,-2.2508,-2.2509,-2.252,-2.2524,-2.253,-2.2521,-2.2526,-2.2518,-2.2519,-2.2507,-2.2507,-2.2471,-2.2466,-2.2508,-2.2507,-2.2507,0,-2.2437,-2.2436,-2.2448,-2.2449,-2.2454,-2.2456,-2.2459,-2.2472,-2.2474,-2.2482,-2.2479,-2.2481,-2.2483,-2.2483,-2.2492,-2.2494,-2.2499,-2.2486,-2.2499,-2.2494,-2.2496,-2.2495,-2.2494,-2.2483,-2.2482,-2.2482,-2.2481,0,-2.2412,-2.2418,-2.2421,-2.2425,-2.2427,-2.2432,-2.2437,-2.2436,-2.2451,-2.2451,-2.2452,-2.2454,-2.2457,-2.2457,-2.246,-2.2465,-2.2474,-2.2477,-2.2474,-2.2469,-2.2464,-2.2464,-2.2508,-2.2478,-2.2478,-2.2478,-2.2479,-2.2479,-2.2392,-2.239,-2.2398,-2.24,-2.2405,-2.2408,-2.2407,-2.2414,-2.2416,-2.2419,-2.2427,-2.2425,-2.2431,-2.2436,-2.2439,-2.2437,-2.2443,-2.244,-2.2439,-2.2437,-2.2434,-2.2465,-2.2438,-2.2438,-2.2438,-2.2438,-2.2438,0,-2.2366,-2.2371,-2.2373,-2.2378,-2.2379,-2.2389,-2.2393,-2.2393,-2.2392,-2.2396,-2.2398,-2.2397,-2.2397,-2.2405,-2.2405,-2.2402,-2.2406,-2.2401,-2.2401,-2.2401,-2.243,-2.2431,-2.2398,-2.2398,-2.2398,-2.2398,-2.2398,-2.2398,-2.2353,-2.235,-2.2355,-2.2353,-2.2358,-2.2357,-2.2359,-2.2361,-2.2364,-2.2363,-2.2363,-2.2368,-2.2372,-2.2373,-2.2372,-2.2374,-2.2373,-2.2366,-2.2369,-2.2396,-2.24,-2.2403,-2.2404,-2.2366,-2.2366,-2.2341,-2.2341,-2.234]}]]